Precipitable_Water
0.97 0.99 1.01 0.97 0.93 0.88 0.83 0.85 0.85 0.86 0.82 0.74 0.72 0.70 0.69 0.67 0.64 0.65 0.62 0.58 0.53 0.50 0.42 0.39 0.36 0.30 0.25 0.14 0.14 0.22 0.19 0.20 0.20 0.20 0.18 0.17 0.15 0.15 0.14 0.15 0.15 0.14 0.15 0.17 0.18 0.17 0.17
0.87 0.93 0.95 0.94 0.93 0.91 0.85 0.80 0.82 0.81 0.77 0.75 0.70 0.69 0.67 0.66 0.65 0.60 0.60 0.57 0.52 0.49 0.41 0.37 0.33 0.29 0.19 0.10 0.24 0.19 0.18 0.18 0.19 0.20 0.20 0.20 0.18 0.19 0.17 0.17 0.15 0.17 0.16 0.17 0.18 0.18 0.19
0.72 0.78 0.87 0.91 0.94 0.91 0.87 0.83 0.80 0.76 0.74 0.72 0.71 0.68 0.63 0.64 0.65 0.61 0.58 0.55 0.51 0.47 0.42 0.34 0.31 0.24 0.16 0.16 0.21 0.20 0.19 0.18 0.21 0.22 0.20 0.23 0.23 0.19 0.19 0.17 0.20 0.18 0.16 0.18 0.18 0.19 0.19
0.70 0.69 0.75 0.78 0.84 0.87 0.88 0.84 0.81 0.78 0.73 0.68 0.64 0.60 0.58 0.60 0.59 0.59 0.56 0.54 0.51 0.45 0.42 0.37 0.32 0.21 0.13 0.24 0.22 0.19 0.20 0.19 0.23 0.24 0.24 0.26 0.25 0.22 0.20 0.21 0.20 0.18 0.19 0.15 0.20 0.21 0.23
0.69 0.71 0.72 0.70 0.72 0.75 0.81 0.82 0.78 0.75 0.70 0.65 0.60 0.54 0.53 0.54 0.52 0.56 0.54 0.54 0.47 0.43 0.44 0.38 0.26 0.19 0.12 0.23 0.19 0.19 0.21 0.19 0.23 0.24 0.26 0.28 0.26 0.22 0.22 0.18 0.17 0.19 0.15 0.17 0.19 0.24 0.22
0.74 0.74 0.72 0.69 0.70 0.70 0.73 0.77 0.78 0.73 0.68 0.65 0.58 0.49 0.51 0.48 0.49 0.55 0.54 0.48 0.44 0.41 0.37 0.34 0.27 0.16 0.17 0.15 0.18 0.20 0.21 0.20 0.19 0.20 0.18 0.21 0.22 0.19 0.21 0.20 0.14 0.16 0.17 0.18 0.18 0.21 0.22
0.75 0.74 0.73 0.69 0.71 0.68 0.69 0.72 0.73 0.74 0.70 0.67 0.59 0.48 0.53 0.49 0.50 0.54 0.48 0.39 0.22 0.20 0.25 0.17 0.18 0.18 0.21 0.21 0.21 0.17 0.18 0.17 0.18 0.18 0.15 0.20 0.18 0.17 0.19 0.22 0.22 0.22 0.20 0.19 0.20 0.23 0.22
0.74 0.75 0.73 0.70 0.71 0.71 0.69 0.69 0.73 0.76 0.74 0.69 0.65 0.50 0.55 0.49 0.55 0.55 0.46 0.27 0.24 0.24 0.16 0.24 0.23 0.21 0.23 0.25 0.17 0.19 0.20 0.14 0.15 0.14 0.18 0.18 0.16 0.22 0.23 0.22 0.21 0.21 0.20 0.19 0.22 0.24 0.23
0.65 0.71 0.71 0.71 0.73 0.72 0.71 0.70 0.74 0.77 0.78 0.75 0.72 0.54 0.57 0.55 0.58 0.50 0.39 0.35 0.40 0.36 0.23 0.22 0.24 0.23 0.23 0.23 0.20 0.20 0.21 0.18 0.15 0.14 0.15 0.15 0.18 0.23 0.22 0.22 0.21 0.20 0.20 0.22 0.22 0.25 0.25
0.60 0.64 0.68 0.68 0.72 0.74 0.75 0.73 0.70 0.72 0.76 0.76 0.78 0.60 0.60 0.58 0.47 0.50 0.41 0.45 0.41 0.37 0.24 0.27 0.28 0.27 0.27 0.26 0.21 0.27 0.25 0.21 0.19 0.17 0.18 0.17 0.20 0.20 0.20 0.20 0.21 0.19 0.25 0.25 0.24 0.23 0.19
0.57 0.58 0.60 0.63 0.64 0.67 0.70 0.73 0.73 0.69 0.73 0.72 0.77 0.67 0.69 0.60 0.45 0.46 0.44 0.47 0.45 0.38 0.18 0.30 0.31 0.37 0.32 0.25 0.27 0.27 0.31 0.24 0.20 0.21 0.22 0.20 0.22 0.23 0.22 0.24 0.26 0.24 0.28 0.27 0.26 0.24 0.22
0.60 0.60 0.59 0.59 0.60 0.61 0.63 0.61 0.63 0.68 0.71 0.72 0.74 0.69 0.73 0.60 0.55 0.51 0.54 0.53 0.43 0.31 0.19 0.28 0.31 0.29 0.29 0.30 0.30 0.31 0.30 0.30 0.29 0.26 0.26 0.25 0.29 0.27 0.25 0.27 0.27 0.28 0.28 0.28 0.27 0.24 0.18
0.55 0.57 0.59 0.59 0.60 0.58 0.59 0.59 0.58 0.56 0.58 0.63 0.66 0.68 0.67 0.60 0.49 0.55 0.53 0.45 0.31 0.24 0.33 0.27 0.27 0.29 0.28 0.27 0.28 0.29 0.27 0.25 0.23 0.21 0.21 0.24 0.25 0.29 0.30 0.27 0.29 0.28 0.26 0.21 0.18 0.17 0.15
0.53 0.54 0.55 0.56 0.57 0.58 0.56 0.57 0.57 0.57 0.55 0.59 0.61 0.63 0.59 0.49 0.53 0.51 0.43 0.34 0.21 0.26 0.27 0.30 0.28 0.28 0.25 0.27 0.27 0.27 0.26 0.24 0.27 0.26 0.23 0.21 0.20 0.25 0.29 0.27 0.25 0.25 0.25 0.21 0.15 0.15 0.17
0.56 0.54 0.53 0.53 0.53 0.55 0.57 0.56 0.56 0.54 0.54 0.54 0.58 0.57 0.50 0.51 0.52 0.46 0.32 0.23 0.22 0.24 0.29 0.27 0.27 0.23 0.23 0.25 0.25 0.25 0.24 0.24 0.26 0.27 0.21 0.20 0.20 0.28 0.28 0.28 0.27 0.23 0.21 0.28 0.23 0.22 0.18
0.58 0.58 0.58 0.58 0.58 0.57 0.58 0.60 0.58 0.58 0.56 0.54 0.45 0.45 0.40 0.50 0.49 0.41 0.27 0.23 0.24 0.30 0.30 0.29 0.23 0.25 0.22 0.24 0.23 0.24 0.24 0.26 0.25 0.27 0.28 0.25 0.20 0.26 0.27 0.29 0.28 0.25 0.27 0.21 0.22 0.15 0.13
0.59 0.57 0.58 0.59 0.60 0.62 0.62 0.64 0.64 0.63 0.60 0.61 0.46 0.33 0.44 0.50 0.45 0.31 0.21 0.23 0.25 0.31 0.31 0.28 0.27 0.26 0.26 0.24 0.25 0.24 0.23 0.26 0.27 0.26 0.27 0.25 0.22 0.21 0.25 0.22 0.21 0.22 0.20 0.21 0.20 0.18 0.12
0.60 0.60 0.59 0.60 0.62 0.62 0.62 0.64 0.66 0.66 0.63 0.58 0.45 0.27 0.49 0.51 0.30 0.30 0.24 0.25 0.28 0.27 0.30 0.29 0.30 0.29 0.26 0.26 0.24 0.23 0.22 0.23 0.27 0.27 0.22 0.24 0.22 0.17 0.18 0.23 0.24 0.23 0.20 0.20 0.16 0.14 0.16
0.68 0.63 0.62 0.62 0.62 0.65 0.68 0.67 0.67 0.70 0.65 0.50 0.36 0.34 0.49 0.46 0.24 0.26 0.28 0.27 0.26 0.25 0.25 0.25 0.25 0.28 0.30 0.25 0.21 0.23 0.23 0.27 0.29 0.26 0.23 0.25 0.20 0.16 0.18 0.22 0.24 0.21 0.22 0.22 0.21 0.19 0.15
0.90 0.87 0.80 0.73 0.71 0.70 0.70 0.71 0.73 0.77 0.77 0.63 0.46 0.33 0.41 0.44 0.39 0.31 0.28 0.27 0.25 0.30 0.28 0.29 0.26 0.28 0.27 0.27 0.29 0.26 0.26 0.30 0.34 0.32 0.34 0.32 0.24 0.20 0.17 0.19 0.23 0.21 0.23 0.24 0.23 0.18 0.19
0.89 0.90 0.89 0.90 0.87 0.86 0.85 0.83 0.82 0.77 0.76 0.63 0.48 0.40 0.44 0.33 0.35 0.37 0.35 0.32 0.29 0.29 0.36 0.36 0.33 0.33 0.34 0.32 0.34 0.33 0.37 0.39 0.41 0.41 0.39 0.35 0.26 0.27 0.26 0.27 0.25 0.23 0.22 0.23 0.22 0.22 0.19
0.84 0.82 0.84 0.86 0.85 0.86 0.88 0.89 0.89 0.91 0.87 0.70 0.52 0.46 0.44 0.36 0.39 0.38 0.38 0.32 0.31 0.32 0.33 0.32 0.31 0.33 0.33 0.30 0.32 0.31 0.34 0.33 0.31 0.35 0.34 0.35 0.27 0.29 0.26 0.29 0.28 0.25 0.25 0.24 0.23 0.23 0.22
0.76 0.77 0.80 0.81 0.81 0.81 0.83 0.84 0.89 0.93 0.90 0.65 0.67 0.63 0.51 0.41 0.38 0.35 0.33 0.34 0.34 0.37 0.36 0.38 0.38 0.36 0.35 0.37 0.40 0.39 0.41 0.42 0.41 0.37 0.35 0.35 0.32 0.30 0.24 0.31 0.31 0.26 0.23 0.27 0.27 0.27 0.26
0.61 0.68 0.72 0.76 0.80 0.82 0.81 0.81 0.82 0.84 0.88 0.75 0.67 0.62 0.48 0.37 0.40 0.36 0.38 0.39 0.38 0.38 0.36 0.40 0.40 0.36 0.42 0.50 0.49 0.48 0.47 0.46 0.45 0.43 0.45 0.35 0.33 0.32 0.26 0.29 0.19 0.23 0.29 0.30 0.28 0.28 0.30
0.49 0.53 0.53 0.56 0.63 0.76 0.80 0.80 0.77 0.79 0.84 0.73 0.68 0.59 0.50 0.39 0.43 0.41 0.40 0.40 0.42 0.42 0.40 0.40 0.42 0.45 0.51 0.49 0.38 0.33 0.33 0.35 0.35 0.40 0.40 0.42 0.35 0.28 0.24 0.23 0.24 0.23 0.24 0.25 0.26 0.22 0.29
0.51 0.51 0.53 0.50 0.53 0.56 0.61 0.70 0.75 0.77 0.79 0.72 0.66 0.66 0.54 0.42 0.40 0.47 0.42 0.42 0.38 0.39 0.40 0.41 0.49 0.52 0.51 0.41 0.35 0.25 0.22 0.25 0.25 0.29 0.39 0.40 0.40 0.31 0.26 0.20 0.16 0.17 0.25 0.30 0.31 0.20 0.27
0.54 0.52 0.49 0.48 0.51 0.54 0.51 0.54 0.61 0.70 0.72 0.70 0.62 0.67 0.54 0.41 0.45 0.47 0.39 0.39 0.45 0.42 0.38 0.40 0.43 0.44 0.50 0.36 0.29 0.26 0.25 0.31 0.24 0.23 0.25 0.29 0.31 0.26 0.25 0.22 0.24 0.26 0.28 0.32 0.21 0.16 0.27
0.54 0.53 0.50 0.47 0.47 0.47 0.52 0.53 0.56 0.58 0.61 0.64 0.60 0.66 0.53 0.43 0.45 0.49 0.50 0.44 0.43 0.42 0.34 0.41 0.40 0.41 0.38 0.31 0.29 0.29 0.28 0.29 0.28 0.27 0.26 0.25 0.25 0.24 0.26 0.22 0.19 0.30 0.30 0.24 0.24 0.29 0.30
0.47 0.47 0.47 0.47 0.48 0.46 0.46 0.47 0.48 0.52 0.59 0.62 0.50 0.63 0.62 0.46 0.43 0.53 0.52 0.51 0.49 0.50 0.45 0.45 0.38 0.38 0.41 0.35 0.34 0.33 0.29 0.32 0.29 0.23 0.31 0.25 0.27 0.25 0.27 0.25 0.32 0.33 0.32 0.35 0.34 0.30 0.30
Wind_Speed
6 7 8 8 9 9 9 11 12 13 13 13 15 15 16 16 16 16 17 17 17 18 19 19 18 17 17 16 15 14 13 12 13 13 12 12 12 12 10 9 8 7 9 7 8 8 8
7 8 8 9 9 10 10 11 12 13 13 14 15 15 16 16 16 17 17 17 18 19 19 19 19 17 17 17 16 14 14 13 12 13 12 12 12 12 10 10 9 9 8 9 9 9 9
8 9 9 9 9 9 10 11 12 12 13 14 15 16 16 17 17 16 17 17 18 19 19 19 19 18 17 18 16 15 14 13 13 13 13 12 13 12 12 11 11 11 9 10 10 11 11
7 8 9 10 11 10 10 11 12 12 13 14 15 15 17 17 17 17 17 17 18 18 19 19 18 18 17 18 17 16 15 14 14 13 13 13 12 12 12 12 11 11 11 11 12 12 12
8 9 9 10 10 10 10 10 12 12 12 14 15 15 17 17 18 18 17 17 17 18 18 18 18 17 17 18 18 17 16 16 15 15 14 14 14 14 14 13 12 12 13 13 12 13 13
8 9 10 10 10 11 11 10 10 12 12 13 14 15 16 17 18 18 17 17 17 17 17 17 17 17 17 19 19 18 18 17 16 17 16 15 15 15 15 15 16 16 15 15 15 13 14
9 10 10 10 11 11 11 12 11 11 12 12 13 15 15 17 18 18 18 16 15 15 17 17 16 17 16 18 18 19 19 19 18 17 17 17 16 18 19 18 16 15 15 15 15 15 16
10 10 11 11 11 11 11 11 12 11 12 12 14 14 15 17 18 18 17 16 16 16 17 17 16 17 17 16 18 18 19 19 18 18 19 17 19 19 17 17 17 16 16 17 16 16 17
11 11 12 12 12 12 11 11 12 13 12 12 14 15 16 17 18 18 16 16 15 15 14 17 18 18 18 19 17 18 18 19 18 19 19 19 19 19 19 18 17 18 18 18 17 18 18
15 15 14 13 14 14 13 12 12 13 12 13 14 16 17 18 16 17 16 16 16 15 14 17 19 19 20 19 18 19 19 18 17 19 19 19 20 20 19 19 19 19 19 18 18 17 20
19 19 18 17 16 16 16 15 14 14 13 13 15 17 18 19 16 17 16 16 16 14 13 15 17 17 18 19 17 18 19 19 18 18 18 20 19 19 19 19 19 19 17 17 18 18 19
24 23 22 21 21 20 18 18 17 16 16 15 16 17 18 17 16 17 16 16 15 13 16 14 13 15 16 17 17 17 18 17 19 18 18 19 19 19 19 19 19 19 17 17 18 19 21
27 26 26 25 24 23 23 21 20 19 19 18 18 19 20 19 17 18 17 16 14 17 13 16 15 14 14 15 16 17 18 19 18 16 20 19 20 20 20 17 18 18 17 18 19 19 23
30 30 29 29 28 27 26 25 24 23 22 21 21 22 22 21 20 20 19 18 19 17 19 15 12 13 17 16 16 16 16 17 20 17 15 17 19 21 20 20 20 21 20 19 21 20 22
33 33 32 31 31 30 29 28 27 26 25 24 24 24 24 25 23 23 22 21 22 21 18 18 16 17 19 19 16 17 20 19 21 22 19 16 19 19 19 20 21 23 22 22 19 23 23
37 36 35 34 33 33 32 31 30 29 28 27 26 26 26 28 26 25 25 27 25 22 19 20 21 20 20 21 20 21 22 21 23 24 22 22 19 22 23 23 23 24 22 20 22 22 25
40 39 39 38 37 36 35 34 33 32 30 29 27 27 27 30 28 28 30 31 28 27 24 23 25 22 23 23 24 24 24 23 24 22 23 23 23 24 24 28 27 25 26 24 23 24 24
44 43 42 41 41 39 39 38 37 35 33 31 29 29 28 31 30 32 32 31 29 29 29 28 26 25 26 26 26 28 29 27 24 23 25 27 24 26 28 28 28 28 29 27 25 27 28
47 46 45 44 43 43 42 41 40 39 37 33 32 31 32 33 33 34 33 33 32 30 30 30 31 30 29 29 27 30 30 29 29 28 27 28 28 25 27 28 29 30 31 29 28 28 32
49 49 48 47 47 46 45 44 44 43 41 37 34 33 34 37 36 35 34 35 34 33 33 32 31 30 30 31 33 31 32 29 31 32 31 30 31 32 36 30 25 29 31 33 32 31 32
44 45 45 46 45 46 47 48 48 47 46 40 38 38 37 35 40 40 36 36 39 36 35 35 35 36 33 33 34 36 34 33 33 34 33 34 37 35 37 35 34 35 34 37 41 44 36
46 45 46 46 46 45 48 47 53 51 51 47 44 43 40 40 37 41 42 40 38 34 34 35 37 35 38 42 39 36 35 34 34 32 34 35 37 34 38 36 36 38 42 42 44 43 47
49 50 48 47 45 47 48 46 47 54 48 45 44 43 43 43 40 40 43 44 41 39 38 39 37 37 37 40 39 37 36 36 36 35 36 35 35 33 44 33 31 38 50 40 39 41 41
45 45 45 47 48 45 44 41 40 41 51 46 46 42 42 44 43 45 39 40 42 40 42 36 37 36 34 31 32 35 38 39 40 41 39 35 34 33 35 29 36 41 35 39 42 45 42
46 45 44 43 44 44 45 44 42 42 41 44 44 43 44 46 46 44 44 41 39 41 42 41 39 37 33 32 32 31 31 33 39 40 40 39 35 33 33 35 37 39 34 31 32 41 42
41 42 43 43 43 44 44 44 44 45 43 41 43 41 38 39 44 45 43 44 42 40 41 44 42 37 35 34 33 32 32 31 31 32 41 41 41 37 30 34 38 46 37 34 29 41 34
36 37 38 39 40 40 41 43 44 43 44 43 39 42 38 37 39 38 38 39 38 39 38 36 37 36 36 35 36 35 35 34 34 34 31 35 38 43 42 39 39 39 33 29 31 42 32
34 34 34 35 36 37 38 39 41 43 43 43 40 40 39 36 39 39 40 37 37 39 40 36 33 36 37 37 35 35 35 37 35 37 36 37 35 37 40 41 45 38 34 39 42 39 38
31 32 32 33 33 32 35 35 36 38 39 41 42 39 41 39 38 39 43 43 43 40 37 38 38 35 36 36 37 35 37 36 39 41 39 39 42 40 40 40 41 41 43 43 41 42 43
Wind_Direction
221 212 207 207 209 211 210 205 205 205 206 208 208 208 209 209 210 210 210 208 206 204 202 200 200 203 202 200 204 211 216 217 214 213 213 218 218 217 216 219 225 224 223 228 224 226 230
224 220 217 215 214 213 212 210 210 211 213 211 210 211 211 211 211 211 210 208 206 204 203 202 204 206 205 204 210 215 217 216 216 215 218 222 220 215 216 226 232 227 221 226 236 238 243
226 223 222 218 214 214 214 215 214 215 214 214 214 214 214 213 212 211 210 208 205 204 204 204 206 207 207 208 214 216 216 218 219 218 218 220 221 225 220 224 224 224 236 240 244 245 249
227 222 219 218 219 219 220 217 217 217 218 217 216 215 213 213 212 211 209 206 205 204 204 205 209 211 212 214 215 219 222 220 220 220 219 222 222 222 230 223 237 239 245 245 247 245 253
230 223 217 216 216 217 219 218 218 218 219 219 216 215 213 211 210 208 206 204 203 204 205 207 212 213 216 219 219 222 223 223 226 225 226 227 230 231 233 233 244 251 244 246 250 248 255
228 223 220 216 217 217 217 216 217 218 219 217 217 214 212 209 206 203 201 200 200 204 206 211 215 218 223 223 222 224 227 228 230 232 235 237 238 237 240 239 242 240 244 249 250 256 254
231 226 223 222 219 219 219 219 219 218 216 216 213 211 208 205 202 199 197 198 205 213 212 217 221 220 222 223 226 229 232 232 235 236 236 241 238 237 237 240 246 242 246 247 252 257 256
231 228 225 224 223 222 222 222 220 218 217 215 212 208 206 202 200 199 202 210 214 217 216 222 221 224 225 227 230 233 233 234 236 236 239 243 240 240 237 242 244 248 249 251 255 257 259
236 232 230 226 224 224 223 222 219 220 220 218 213 208 205 201 201 205 212 217 218 220 224 228 229 229 230 231 234 235 235 236 236 237 239 238 244 238 242 245 245 251 247 251 254 262 262
238 237 233 231 229 226 227 226 223 222 223 221 215 208 204 199 205 210 218 220 220 225 232 232 232 235 233 232 239 237 236 236 240 236 237 243 242 241 243 245 246 248 254 253 258 262 260
241 240 238 236 234 232 230 229 227 226 225 223 215 209 206 206 217 215 221 220 222 230 243 232 232 233 231 231 231 239 238 239 237 239 239 245 240 242 244 246 246 248 252 255 259 260 267
244 242 240 239 238 236 235 233 231 229 228 226 216 213 211 217 223 220 220 219 222 231 240 229 228 228 227 233 236 235 237 239 239 241 245 245 246 245 244 247 249 239 253 261 262 262 266
247 244 243 242 240 239 238 237 235 234 231 229 224 221 220 224 228 221 221 220 232 231 236 233 231 227 229 229 233 234 234 235 234 238 240 247 244 245 241 243 249 248 252 262 267 264 260
247 246 244 243 242 241 240 238 237 236 235 233 230 227 227 230 229 225 225 231 235 239 233 236 231 227 232 230 236 234 234 239 238 238 241 236 250 235 241 243 243 243 244 248 255 259 266
248 246 245 244 242 241 240 239 238 237 236 236 234 234 234 232 231 230 230 237 238 238 233 229 239 239 242 240 239 238 238 242 240 233 236 241 248 246 249 247 247 249 251 254 259 266 272
248 247 245 244 243 242 241 240 239 238 237 236 237 237 239 232 232 234 238 243 243 241 238 240 238 242 239 240 241 241 240 246 248 238 243 246 255 255 250 250 253 250 252 258 262 263 267
249 247 246 245 243 242 241 240 239 238 237 236 239 242 241 231 234 239 241 243 247 244 242 242 243 245 246 243 242 246 249 252 246 245 246 250 253 258 253 249 247 252 254 258 259 258 261
249 247 246 245 244 243 242 241 239 238 236 238 241 244 240 233 239 243 244 244 247 247 245 248 248 248 245 243 247 249 247 252 247 243 243 248 254 254 252 257 253 252 252 250 255 261 263
248 247 247 245 244 243 242 241 240 237 235 240 243 245 242 238 243 245 249 249 249 247 246 247 248 248 250 247 254 250 251 255 247 246 247 245 254 259 264 261 258 255 253 254 258 262 257
249 247 247 246 245 244 243 242 240 239 237 240 244 245 246 243 247 248 247 249 249 249 249 248 250 250 251 251 254 256 254 256 251 251 252 246 252 250 254 258 258 256 255 250 252 258 261
246 245 245 245 246 245 244 243 241 239 236 239 243 247 247 245 244 245 247 251 247 248 250 248 252 249 250 255 256 254 257 260 259 255 253 249 255 255 260 260 259 258 257 250 248 253 256
245 248 248 246 247 248 245 248 242 238 238 242 244 244 246 248 248 242 244 247 248 249 247 251 251 251 251 253 253 256 255 257 256 257 252 254 259 258 261 259 259 262 258 254 252 255 257
249 248 247 248 248 248 246 247 246 236 230 239 243 245 243 245 246 243 246 247 249 248 252 252 252 253 253 255 257 260 256 255 256 252 249 251 255 256 260 259 260 263 256 254 258 257 257
247 247 248 247 247 247 243 242 239 234 232 237 240 243 242 245 243 244 246 246 246 247 249 254 250 252 257 261 261 261 258 257 255 253 251 253 252 254 260 256 252 261 265 255 252 256 254
248 247 248 247 244 244 242 240 239 237 233 236 238 241 244 247 246 246 246 247 248 249 250 251 252 255 257 260 260 260 258 257 254 250 246 247 248 254 254 253 265 268 261 257 253 261 255
247 246 245 245 245 243 242 241 241 239 238 240 238 238 242 245 245 246 245 243 247 251 252 254 255 255 254 255 254 253 254 255 255 258 248 245 246 247 253 255 254 264 259 259 263 266 258
243 243 243 244 244 243 242 241 240 240 240 239 240 236 239 245 247 242 245 245 246 248 253 255 252 249 247 251 253 253 254 252 252 253 255 245 247 245 249 254 262 262 263 257 253 270 261
241 242 244 244 242 241 242 242 242 242 240 238 241 238 239 244 244 245 244 245 250 248 250 253 249 250 250 250 252 252 254 252 253 254 251 246 247 251 251 254 255 259 259 251 266 271 268
241 242 243 241 241 241 241 242 241 241 240 240 240 240 242 247 248 245 246 249 248 249 252 247 253 253 250 250 250 254 255 254 252 253 255 250 250 253 251 257 260 256 260 262 263 267 269